This is the latest recevied weather packets stored in our database for station/object KB2SKP. If no packets are shown the sender has not sent any weather packets the latest 10 day(s).
| Time | Temp. | Humidity | Pressure | Rain* | Wind** | Luminosity | Snow |
|---|---|---|---|---|---|---|---|
| 1778067573 | 18.33° C | 72% | 1008.2 hPa | 0 mm | - | 33 W/m² | - |
| 1778067271 | 18.33° C | 72% | 1008 hPa | 0 mm | - | 46 W/m² | - |
| 1778066967 | 18.33° C | 72% | 1008.1 hPa | 0 mm | - | 40 W/m² | - |
| 1778066665 | 18.33° C | 72% | 1008 hPa | 0 mm | - | 31 W/m² | - |
| 1778066362 | 18.33° C | 72% | 1007.9 hPa | 0 mm | - | 35 W/m² | - |
| 1778066060 | 18.33° C | 72% | 1008 hPa | 0 mm | - | 33 W/m² | - |
| 1778065757 | 17.78° C | 73% | 1007.8 hPa | 0 mm | - | 30 W/m² | - |
| 1778065455 | 17.78° C | 74% | 1007.9 hPa | 0 mm | - | 31 W/m² | - |
| 1778065151 | 17.78° C | 73% | 1007.8 hPa | 0 mm | - | 21 W/m² | - |
| 1778064847 | 17.78° C | 73% | 1007.8 hPa | 0 mm | - | 11 W/m² | - |
| 1778064545 | 17.78° C | 73% | 1008 hPa | 0 mm | - | 8 W/m² | - |
| 1778064243 | 17.78° C | 73% | 1007.8 hPa | 0 mm | - | 8 W/m² | - |
| 1778063940 | 17.78° C | 73% | 1007.9 hPa | 0 mm | - | 7 W/m² | - |
| 1778063637 | 17.78° C | 72% | 1007.7 hPa | 0 mm | - | 6 W/m² | - |
| 1778063334 | 17.78° C | 73% | 1007.5 hPa | 0 mm | - | 8 W/m² | - |
| 1778063032 | 17.78° C | 74% | 1007.7 hPa | 0 mm | - | 8 W/m² | - |
| 1778062729 | 17.78° C | 74% | 1007.6 hPa | 0 mm | - | 5 W/m² | - |
| 1778062425 | 17.78° C | 74% | 1007.7 hPa | 0 mm | - | 3 W/m² | - |
| 1778062123 | 17.78° C | 74% | 1007.6 hPa | 0 mm | - | 2 W/m² | - |
| 1778061821 | 17.78° C | 74% | 1007.8 hPa | 0 mm | - | 1 W/m² | - |
| 1778061519 | 17.78° C | 74% | 1007.8 hPa | 0 mm | - | 1 W/m² | - |
| 1778061216 | 17.78° C | 74% | 1007.5 hPa | 0 mm | - | 0 W/m² | - |
| 1778060913 | 17.78° C | 74% | 1007.7 hPa | 0 mm | - | 0 W/m² | - |
| 1778060612 | 17.78° C | 74% | 1007.7 hPa | 0 mm | - | 0 W/m² | - |
| 1778060310 | 17.78° C | 74% | 1007.6 hPa | 0 mm | - | 0 W/m² | - |
* Rain latest hour (hover to see other rain measurements)
** Current wind speed in m/s (hover to see current wind gust speed)